• In Uzbekistan
  • List of Countries
  • For 7 days
  • Water Temperature
  • Satellite Maps
  • Weather Map
  • Weather Widgets
  • user-avatar
    Login

    Hourly Weather Mbuji-Mayi

    Today, 18 November, Saturday

    Time Temperature Precipitation Wind Pressure Humidity
    00:00 +26°C° 0 mm 2 mps 706 mmHg 74%
    01:00 +26°C° 0 mm 2 mps 706 mmHg 77%
    02:00 +25°C° 0 mm 2 mps 706 mmHg 82%
    03:00 +25°C° 0.1 mm 1 mps 706 mmHg 84%
    04:00 +24°C° 0.1 mm 1 mps 706 mmHg 87%
    05:00 +24°C° 0.1 mm 1 mps 706 mmHg 89%
    06:00 +24°C° 0 mm 1 mps 706 mmHg 87%
    07:00 +25°C° 0 mm 1 mps 706 mmHg 86%
    08:00 +25°C° 0 mm 1 mps 707 mmHg 84%
    09:00 +28°C° 0 mm 1 mps 707 mmHg 73%
    10:00 +30°C° 0 mm 1 mps 707 mmHg 62%
    11:00 +33°C° 0 mm 1 mps 707 mmHg 52%
    12:00 +35°C° 0.1 mm 1 mps 707 mmHg 46%
    13:00 +36°C° 0.1 mm 1 mps 706 mmHg 40%
    14:00 +36°C° 0.1 mm 0 mps 706 mmHg 35%
    15:00 +36°C° 0.2 mm 1 mps 705 mmHg 39%
    16:00 +35°C° 0.2 mm 1 mps 705 mmHg 44%
    17:00 +33°C° 0.2 mm 1 mps 704 mmHg 48%
    18:00 +31°C° 0.2 mm 1 mps 705 mmHg 55%
    19:00 +29°C° 0.2 mm 2 mps 705 mmHg 63%
    20:00 +27°C° 0.2 mm 2 mps 705 mmHg 70%
    21:00 +26°C° 0.3 mm 1 mps 706 mmHg 75%
    22:00 +25°C° 0.3 mm 1 mps 706 mmHg 80%
    23:00 +24°C° 0.3 mm 1 mps 707 mmHg 85%

    Tomorrow, 19 November, Sunday

    Time Temperature Precipitation Wind Pressure Humidity
    00:00 +24°C° 0 mm 1 mps 706 mmHg 86%
    01:00 +24°C° 0 mm 1 mps 706 mmHg 87%
    02:00 +24°C° 0 mm 1 mps 705 mmHg 88%
    03:00 +23°C° 0 mm 1 mps 705 mmHg 87%
    04:00 +23°C° 0 mm 1 mps 705 mmHg 87%
    05:00 +23°C° 0 mm 1 mps 705 mmHg 87%
    06:00 +24°C° 0 mm 1 mps 705 mmHg 81%
    07:00 +25°C° 0 mm 1 mps 706 mmHg 75%
    08:00 +26°C° 0 mm 1 mps 706 mmHg 70%
    09:00 +29°C° 0 mm 1 mps 707 mmHg 60%
    10:00 +32°C° 0 mm 1 mps 707 mmHg 51%
    11:00 +35°C° 0 mm 1 mps 708 mmHg 41%
    12:00 +36°C° 0 mm 1 mps 707 mmHg 38%
    13:00 +37°C° 0 mm 1 mps 706 mmHg 34%
    14:00 +39°C° 0 mm 2 mps 706 mmHg 31%
    15:00 +36°C° 0 mm 1 mps 705 mmHg 35%
    16:00 +35°C° 0 mm 1 mps 705 mmHg 39%
    17:00 +33°C° 0 mm 1 mps 704 mmHg 44%
    18:00 +32°C° 0 mm 1 mps 705 mmHg 48%
    19:00 +30°C° 0 mm 1 mps 705 mmHg 53%
    20:00 +28°C° 0 mm 1 mps 706 mmHg 58%
    21:00 +27°C° 0 mm 1 mps 706 mmHg 60%
    22:00 +27°C° 0 mm 1 mps 706 mmHg 63%
    23:00 +26°C° 0 mm 1 mps 706 mmHg 66%

    Day after tomorrow, 20 November, Monday

    Time Temperature Precipitation Wind Pressure Humidity
    00:00 +26°C° 0.1 mm 1 mps 706 mmHg 70%
    01:00 +25°C° 0.1 mm 1 mps 706 mmHg 73%
    02:00 +25°C° 0.1 mm 1 mps 706 mmHg 77%
    03:00 +24°C° 0.3 mm 1 mps 706 mmHg 80%
    04:00 +24°C° 0.3 mm 1 mps 706 mmHg 83%
    05:00 +23°C° 0.3 mm 1 mps 706 mmHg 86%
    06:00 +24°C° 0 mm 1 mps 706 mmHg 84%
    07:00 +24°C° 0 mm 1 mps 707 mmHg 82%
    08:00 +25°C° 0 mm 1 mps 707 mmHg 79%
    09:00 +28°C° 0 mm 1 mps 708 mmHg 69%
    10:00 +31°C° 0 mm 1 mps 708 mmHg 59%
    11:00 +34°C° 0 mm 1 mps 709 mmHg 49%
    12:00 +35°C° 0 mm 1 mps 708 mmHg 44%
    13:00 +36°C° 0 mm 1 mps 707 mmHg 40%
    14:00 +37°C° 0 mm 1 mps 706 mmHg 35%
    15:00 +36°C° 0 mm 1 mps 705 mmHg 38%
    16:00 +35°C° 0 mm 1 mps 705 mmHg 41%
    17:00 +33°C° 0 mm 1 mps 705 mmHg 44%
    18:00 +30°C° 0 mm 0 mps 705 mmHg 47%
    19:00 +29°C° 0 mm 0 mps 705 mmHg 49%
    20:00 +28°C° 0 mm 0 mps 706 mmHg 51%
    21:00 +27°C° 0 mm 0 mps 706 mmHg 54%
    22:00 +26°C° 0 mm 0 mps 706 mmHg 57%
    23:00 +26°C° 0 mm 0 mps 706 mmHg 60%

    21 November, Tuesday

    Time Temperature Precipitation Wind Pressure Humidity
    00:00 +27°C° 0 mm 1 mps 706 mmHg 64%
    01:00 +26°C° 0 mm 1 mps 706 mmHg 68%
    02:00 +25°C° 0 mm 2 mps 705 mmHg 72%
    03:00 +25°C° 0 mm 1 mps 705 mmHg 77%
    04:00 +24°C° 0 mm 1 mps 705 mmHg 82%
    05:00 +23°C° 0 mm 1 mps 705 mmHg 87%
    06:00 +24°C° 0 mm 1 mps 706 mmHg 84%
    07:00 +25°C° 0 mm 1 mps 706 mmHg 81%
    08:00 +26°C° 0 mm 1 mps 707 mmHg 77%
    09:00 +29°C° 0 mm 1 mps 707 mmHg 68%
    10:00 +31°C° 0 mm 1 mps 708 mmHg 58%
    11:00 +34°C° 0 mm 1 mps 708 mmHg 48%
    12:00 +36°C° 0 mm 2 mps 707 mmHg 43%
    13:00 +37°C° 0 mm 2 mps 706 mmHg 37%
    14:00 +38°C° 0 mm 2 mps 705 mmHg 32%
    15:00 +37°C° 0 mm 2 mps 705 mmHg 33%
    16:00 +36°C° 0 mm 1 mps 704 mmHg 34%
    17:00 +35°C° 0 mm 1 mps 704 mmHg 35%
    18:00 +31°C° 0 mm 0 mps 704 mmHg 38%
    19:00 +28°C° 0 mm 0 mps 704 mmHg 41%
    20:00 +26°C° 0 mm 0 mps 704 mmHg 45%
    21:00 +25°C° 0 mm 0 mps 705 mmHg 46%
    22:00 +25°C° 0 mm 0 mps 705 mmHg 48%
    23:00 +24°C° 0 mm 0 mps 705 mmHg 49%

    22 November, Wednesday

    Time Temperature Precipitation Wind Pressure Humidity
    00:00 +23°C° 0 mm 0 mps 705 mmHg 52%
    01:00 +22°C° 0 mm 0 mps 705 mmHg 55%
    02:00 +22°C° 0 mm 0 mps 704 mmHg 59%
    03:00 +21°C° 0 mm 0 mps 705 mmHg 63%
    04:00 +21°C° 0 mm 0 mps 705 mmHg 68%
    05:00 +20°C° 0 mm 0 mps 705 mmHg 72%
    06:00 +22°C° 0 mm 0 mps 706 mmHg 71%
    07:00 +23°C° 0 mm 0 mps 707 mmHg 70%
    08:00 +24°C° 0 mm 0 mps 708 mmHg 68%
    09:00 +29°C° 0 mm 1 mps 708 mmHg 57%
    10:00 +31°C° 0 mm 1 mps 708 mmHg 46%
    11:00 +34°C° 0 mm 1 mps 708 mmHg 35%
    12:00 +35°C° 0 mm 1 mps 707 mmHg 31%
    13:00 +36°C° 0 mm 1 mps 706 mmHg 27%
    14:00 +37°C° 0 mm 1 mps 705 mmHg 24%
    15:00 +36°C° 0 mm 1 mps 705 mmHg 26%
    16:00 +35°C° 0 mm 1 mps 704 mmHg 27%
    17:00 +34°C° 0 mm 1 mps 704 mmHg 29%
    18:00 +32°C° 0 mm 1 mps 705 mmHg 32%
    19:00 +30°C° 0 mm 1 mps 705 mmHg 34%
    20:00 +27°C° 0 mm 1 mps 705 mmHg 36%
    21:00 +27°C° 0 mm 1 mps 705 mmHg 38%
    22:00 +26°C° 0 mm 1 mps 705 mmHg 39%
    23:00 +26°C° 0 mm 1 mps 706 mmHg 40%

    23 November, Thursday

    Time Temperature Precipitation Wind Pressure Humidity
    00:00 +23°C° 0 mm 0 mps 705 mmHg 44%
    01:00 +22°C° 0 mm 0 mps 705 mmHg 48%
    02:00 +21°C° 0 mm 0 mps 705 mmHg 52%
    03:00 +21°C° 0 mm 0 mps 705 mmHg 53%
    04:00 +21°C° 0 mm 0 mps 705 mmHg 54%
    05:00 +20°C° 0 mm 0 mps 706 mmHg 55%
    06:00 +21°C° 0 mm 0 mps 706 mmHg 54%
    07:00 +22°C° 0 mm 0 mps 707 mmHg 52%
    08:00 +23°C° 0 mm 0 mps 708 mmHg 51%
    09:00 +28°C° 0 mm 1 mps 708 mmHg 42%
    10:00 +31°C° 0 mm 1 mps 708 mmHg 34%
    11:00 +34°C° 0 mm 1 mps 708 mmHg 25%
    12:00 +35°C° 0 mm 1 mps 707 mmHg 23%
    13:00 +36°C° 0 mm 1 mps 706 mmHg 20%
    14:00 +37°C° 0 mm 2 mps 705 mmHg 18%
    15:00 +36°C° 0 mm 1 mps 705 mmHg 20%
    16:00 +35°C° 0 mm 1 mps 705 mmHg 23%
    17:00 +34°C° 0 mm 1 mps 704 mmHg 25%
    18:00 +31°C° 0 mm 1 mps 705 mmHg 28%
    19:00 +29°C° 0 mm 1 mps 705 mmHg 30%
    20:00 +26°C° 0 mm 1 mps 705 mmHg 33%
    21:00 +26°C° 0 mm 1 mps 706 mmHg 33%
    22:00 +25°C° 0 mm 1 mps 706 mmHg 34%
    23:00 +25°C° 0 mm 1 mps 706 mmHg 35%
    Show more